Regional Weather Roundup
Issued by NWS

Home | Current Version | Previous Version | Text Only | Print | Product List | Glossary On
Versions: 1 2 3 4 5 6 7 8 9 10 11 12 13 14 15 16 17 18 19 20 21 22 23 24 25 26 27 28 29 30 31 32 33 34 35 36 37 38 39 40 41 42 43 44 45 46 47 48 49 50
000
ASUS43 KLMK 171610
RWRKY
KENTUCKY REGIONAL WEATHER ROUNDUP
NATIONAL WEATHER SERVICE LOUISVILLE KY
1200 PM EDT THU APR 17 2014

NOTE "FAIR" INDICATES FEW OR NO CLOUDS BELOW 12,000 FEET
WITH NO SIGNIFICANT WEATHER AND/OR OBSTRUCTIONS TO VISIBILITY.

KYZ001>023-026-027-061>063-070>075-171700-
WESTERN AND SOUTH CENTRAL KENTUCKY

CITY           SKY/WX    TMP DP  RH WIND       PRES   REMARKS
PADUCAH        SUNNY     63  40  42 SW10      30.31S
HENDERSON      SUNNY     61  39  44 SW12      30.33S
OWENSBORO      SUNNY     61  39  44 SW16G23   30.35R
HOPKINSVILLE   SUNNY     63  36  36 S14       30.35R
BOWLING GREEN  SUNNY     60  33  36 S12       30.38S
GLASGOW        SUNNY     59  31  34 SW8       30.39S
$$

KYZ024-025-028>034-038-045-046-053-171700-
NORTH CENTRAL KENTUCKY

CITY           SKY/WX    TMP DP  RH WIND       PRES   REMARKS
LOUISVILLE/SDF MOSUNNY   63  34  33 SW12      30.36S
LOUISVILLE/LOU SUNNY     63  33  32 SW14G20   30.37R
FORT KNOX      SUNNY     61  35  37 S8G18     30.36R
$$

KYZ035>037-039>044-047>052-055>060-089>105-171700-
NORTHEAST KENTUCKY

CITY           SKY/WX    TMP DP  RH WIND       PRES   REMARKS
LEXINGTON      SUNNY     60  32  34 SW13      30.39R
COVINGTON      MOSUNNY   60  34  37 S12G17    30.36R
FRANKFORT      SUNNY     61  33  35 MISG      30.37S
$$

KYZ054-064>069-076>088-106>120-171700-
SOUTHEAST KENTUCKY

CITY           SKY/WX    TMP DP  RH WIND       PRES   REMARKS
JACKSON        SUNNY     59  23  25 VRB3      30.42S
LONDON         SUNNY     59  27  29 S6        30.41S
SOMERSET       SUNNY     57  28  33 SE3       30.42S
MIDDLESBORO    SUNNY     57  31  36 CALM      30.43S
MONTICELLO     SUNNY     60  29  31 VRB3      30.41S
$$




USA.gov is the U.S. government's official web portal to all federal, state and local government web resources and services.